Theta_e
296 297 296 297 296 296 295 295 295 296 299 302 301 301 302 305 302 299 306 309 306 307 309 311 311 313 314 314 315 317 319 319 320 320 319 318 318 320 320 322 324 325 324 323 323 325 327 328 330 334 335 340 345 349 351 353 353 355 353 352 352 352 354 355 357 359 360 360 360 360 359 360 359 358 357 357 357 357 358 357 354 353 351 350 353 356 358
295 295 296 296 295 294 296 296 296 297 299 302 303 302 303 306 306 307 308 308 306 308 309 312 312 314 315 315 317 319 319 317 319 318 318 317 318 318 319 321 321 324 324 324 323 324 324 325 327 329 333 336 338 345 348 349 352 354 356 355 353 352 352 355 358 360 361 362 362 362 360 360 361 360 358 358 356 357 357 357 358 358 357 354 351 352 356
293 294 296 296 294 295 295 295 296 297 299 302 305 304 305 307 306 307 306 307 305 310 314 313 315 316 315 316 315 317 318 318 318 318 317 318 318 318 320 321 321 323 324 324 324 324 323 323 324 325 329 333 337 338 345 348 350 352 354 357 355 352 353 356 358 361 362 362 363 362 362 361 361 361 359 358 358 359 359 359 359 361 358 355 353 352 352
292 294 294 293 295 294 294 295 296 296 297 298 300 303 305 305 304 305 305 304 304 309 313 313 314 314 313 312 313 315 316 317 318 318 317 319 318 318 319 320 322 322 323 323 324 325 324 324 323 324 327 331 334 336 340 344 347 351 353 354 354 355 355 357 357 359 362 364 363 362 363 362 362 363 360 359 359 360 358 358 361 359 358 357 357 354 352
292 294 293 293 292 293 291 293 296 298 300 303 305 307 307 307 307 304 302 304 309 311 312 311 312 313 313 313 313 314 315 318 318 317 317 318 319 319 320 320 321 321 323 324 325 325 325 325 323 323 326 328 331 333 337 341 344 347 350 352 355 355 356 357 359 362 362 360 362 362 363 363 363 363 362 360 359 358 357 359 359 360 360 358 358 357 355
293 293 293 293 292 286 288 299 302 301 300 301 299 301 305 307 308 306 309 310 311 311 310 309 310 311 313 314 315 316 317 317 316 317 318 318 320 321 321 321 321 322 323 324 326 326 327 326 324 324 326 328 332 335 336 339 340 342 344 350 353 354 359 358 358 359 360 358 357 360 362 363 363 362 361 361 358 357 358 359 359 359 359 359 359 361 359
292 294 293 290 285 287 297 302 303 303 303 304 304 305 305 307 308 308 308 308 309 310 312 311 312 314 314 316 316 316 316 316 315 315 316 317 318 319 321 322 323 323 323 324 326 327 326 326 325 324 325 328 332 335 335 335 336 338 339 342 347 350 353 356 358 357 360 359 357 357 360 362 363 362 361 361 360 358 356 357 358 359 359 359 359 360 359
296 292 291 283 286 296 300 300 302 304 303 306 304 301 303 305 305 307 305 307 309 310 310 311 313 314 315 316 318 317 315 314 314 313 314 315 316 317 318 321 322 324 324 324 324 326 328 326 324 325 326 328 330 333 335 335 334 335 336 337 337 342 347 349 351 354 356 357 358 359 360 361 361 361 361 362 361 360 358 356 358 359 360 360 359 359 359
290 291 290 289 295 294 296 296 300 300 301 301 300 296 300 305 306 307 306 306 307 308 308 310 311 314 314 314 316 316 313 313 313 313 313 314 315 316 318 318 320 324 325 325 325 327 328 326 325 326 327 328 330 332 334 335 335 334 335 335 335 335 337 342 345 348 352 354 359 359 357 358 359 360 360 361 362 362 359 357 355 356 359 359 361 359 359
295 292 289 290 289 286 293 299 305 307 307 307 307 302 301 306 307 308 307 306 306 306 307 308 309 309 309 307 312 313 312 312 312 313 313 314 315 315 316 318 319 322 323 324 325 325 326 328 328 329 328 327 329 331 331 332 334 333 334 335 335 334 334 336 339 343 347 351 354 358 360 357 357 358 359 360 359 362 360 358 355 356 358 359 361 361 359
293 291 288 288 285 290 300 302 304 306 306 305 305 297 294 305 308 307 308 306 306 307 306 307 308 306 303 304 310 310 311 312 312 312 313 314 314 315 315 315 316 318 320 323 324 325 324 325 328 331 329 328 327 330 331 331 332 332 332 334 335 334 333 334 336 338 341 347 351 353 357 357 356 357 357 359 360 361 361 360 359 359 359 358 359 361 360
294 292 289 287 293 292 300 303 303 304 306 302 302 289 290 304 307 307 307 306 306 306 307 307 306 304 301 304 308 310 310 311 313 313 313 314 314 315 316 317 318 319 320 321 322 322 322 325 327 329 329 327 328 328 330 332 332 331 332 332 335 337 337 336 336 337 340 342 346 349 351 352 355 356 357 357 359 360 361 361 361 360 359 359 358 359 361
293 291 292 293 295 301 303 303 305 305 305 302 292 286 299 305 307 307 306 307 306 307 306 307 304 307 309 309 310 311 311 311 312 314 315 315 315 315 316 317 320 318 318 317 318 320 323 326 325 326 327 327 327 328 328 330 331 331 333 334 334 336 336 337 336 337 338 339 339 342 346 349 351 354 354 354 355 356 358 359 361 361 360 360 358 359 360
292 293 291 290 295 302 305 305 306 306 301 290 291 301 309 308 307 307 306 305 307 307 307 307 308 309 309 310 310 311 311 312 313 314 315 316 316 317 318 319 318 318 317 318 318 318 322 324 325 325 327 327 327 328 327 327 329 330 333 334 334 334 336 338 337 336 336 337 339 340 343 346 347 351 351 351 354 353 354 353 353 356 361 360 360 359 361
294 294 291 288 285 300 306 305 304 305 296 300 303 307 307 306 307 306 307 307 307 308 307 308 309 309 309 309 310 311 312 312 312 313 314 315 315 316 317 317 318 318 317 317 316 318 320 323 325 326 327 327 327 327 327 329 329 331 331 333 335 333 335 337 339 338 337 336 337 337 339 342 344 346 350 347 349 351 348 349 349 350 350 352 357 360 360
290 290 288 288 297 303 307 304 298 303 305 306 308 306 306 307 307 307 307 308 309 309 308 307 308 308 309 309 311 311 311 312 312 313 314 315 315 315 316 317 318 318 318 319 318 320 320 323 326 328 327 327 327 326 327 331 330 331 331 331 332 333 335 337 337 339 338 338 339 339 340 342 345 345 348 349 347 349 351 348 347 345 348 353 350 350 354
296 294 297 302 304 306 307 307 306 308 309 309 309 307 306 306 307 308 306 307 308 309 308 308 307 307 308 308 309 309 309 310 311 311 312 313 314 314 315 315 318 318 318 319 319 320 321 323 325 328 329 328 328 327 329 331 331 330 330 331 331 331 333 334 336 337 339 341 341 340 339 342 343 346 346 347 349 351 352 350 347 346 347 348 348 351 352
304 305 304 307 305 305 306 307 308 307 307 309 309 307 307 307 308 308 307 308 308 309 309 306 306 306 307 307 308 308 309 310 311 312 312 313 314 314 315 316 317 317 318 319 319 320 322 323 323 326 328 329 328 328 330 332 331 330 330 330 330 330 331 332 333 336 336 338 338 338 337 338 341 344 346 347 348 351 353 353 352 350 348 348 347 346 349
296 291 303 303 303 305 305 305 306 307 308 309 309 308 307 308 308 308 309 308 308 308 308 307 306 306 307 307 308 308 309 309 310 310 311 312 313 313 313 315 316 316 318 317 318 319 319 322 323 325 327 328 329 330 331 330 330 330 329 330 330 329 330 329 332 333 336 335 335 337 337 337 338 341 341 344 346 349 352 352 352 352 347 347 347 347 346
297 297 303 305 306 307 307 307 305 304 306 308 308 309 309 309 309 308 308 309 308 308 307 307 307 306 307 307 307 307 307 308 309 309 310 311 312 314 315 316 316 317 317 317 317 319 319 321 323 323 324 326 328 328 328 328 328 329 328 328 326 328 329 329 330 332 333 334 334 335 335 335 335 336 338 339 341 345 347 349 349 349 349 347 345 344 344
301 304 305 306 305 306 307 306 306 307 307 307 307 307 307 308 307 308 309 310 308 308 307 308 307 306 307 307 307 306 307 308 309 309 309 311 312 313 314 314 316 315 316 316 318 318 319 321 322 323 323 325 328 329 327 327 327 327 327 327 328 327 328 329 329 332 332 333 332 333 334 335 336 337 336 336 336 336 339 342 346 348 349 349 348 349 351
296 297 300 305 297 298 302 304 306 307 308 308 308 307 306 306 307 308 307 307 308 307 307 308 307 306 306 307 307 307 307 308 309 309 309 310 311 312 313 314 315 316 317 317 318 318 318 321 322 323 324 326 328 326 326 326 326 325 326 327 326 326 327 327 328 328 329 329 331 332 331 333 334 335 332 320 325 333 333 329 323 317 316 338 345 350 350
296 302 305 306 305 304 306 307 308 308 308 308 306 306 306 307 308 308 306 305 306 306 307 308 307 306 306 307 307 307 307 307 308 309 309 309 309 310 312 313 314 315 316 317 318 318 319 321 322 323 324 326 327 327 327 327 325 324 325 325 325 324 325 326 325 325 326 327 329 331 332 332 333 332 333 336 312 309 313 318 315 308 305 306 308 314 332
304 306 306 307 305 302 305 307 308 308 309 308 306 307 308 307 308 307 307 307 305 305 307 307 308 308 307 307 307 306 307 308 309 309 310 311 312 312 313 312 313 315 315 316 317 317 319 320 321 323 323 324 326 326 326 325 326 325 324 323 322 323 324 324 325 326 326 327 327 328 328 330 332 331 331 330 333 320 313 313 310 307 306 305 305 306 307
303 307 308 308 308 307 308 308 308 309 309 309 307 307 308 308 308 307 306 306 307 306 305 306 307 308 307 306 307 307 306 307 309 310 311 312 311 312 312 313 313 313 314 315 316 318 319 321 322 323 323 325 325 324 325 325 324 323 323 322 321 322 324 324 324 326 325 326 326 325 324 325 327 330 329 328 328 329 330 316 310 308 307 306 304 305 306
309 309 309 309 309 308 308 308 308 308 308 309 308 308 308 307 308 308 306 307 306 307 306 306 306 307 308 307 306 306 307 308 310 310 310 310 311 310 310 311 312 314 315 316 317 318 319 320 321 322 322 323 324 324 324 324 324 323 323 322 323 322 322 322 322 323 324 323 324 324 323 323 324 325 328 330 328 329 328 329 331 321 305 302 303 303 302
309 310 308 306 305 306 307 305 304 308 308 309 308 308 308 308 308 307 307 307 307 307 307 307 307 307 308 308 308 307 306 308 309 309 309 309 310 310 311 312 313 314 316 316 316 317 318 320 321 321 321 322 324 323 323 323 323 322 322 322 322 322 321 322 323 322 322 322 322 322 322 322 322 324 326 329 329 328 328 327 327 328 332 335 320 310 334
308 309 308 303 302 303 305 307 308 309 309 309 309 308 308 308 307 306 306 306 307 307 308 308 307 307 306 307 307 307 307 308 307 308 309 310 310 311 312 313 313 314 315 316 317 318 319 320 319 320 321 324 324 322 321 322 321 320 320 321 320 320 321 321 321 321 320 321 321 321 321 322 322 323 324 325 326 329 327 328 328 328 330 332 333 324 318
307 308 308 308 308 308 308 309 308 308 308 309 309 309 309 307 305 305 304 304 305 306 305 306 308 308 306 306 307 307 307 307 307 308 309 310 310 310 311 313 313 313 313 314 314 317 319 319 319 320 321 322 320 320 319 319 319 318 318 319 319 319 319 320 320 320 320 320 320 320 319 319 320 322 324 325 326 326 328 327 328 328 328 330 331 334 331
308 308 308 308 308 308 307 305 305 306 306 307 307 307 308 307 305 305 304 305 306 304 305 306 307 306 306 306 307 307 307 307 308 308 308 308 309 310 311 312 312 311 310 309 309 311 312 314 315 315 315 316 317 317 318 318 317 318 317 317 317 317 318 319 319 318 318 318 318 318 319 321 323 324 324 325 325 325 324 325 325 324 325 327 326 330 331
307 308 307 307 305 305 305 305 305 306 306 307 307 306 307 307 306 305 305 305 305 305 305 305 305 305 306 306 307 309 308 309 308 308 308 309 310 310 310 310 308 306 305 306 307 308 309 310 311 311 313 315 315 315 315 315 316 316 316 316 317 316 315 314 315 316 316 317 318 318 320 321 321 322 322 322 323 323 322 323 323 323 323 324 326 328 330
306 306 305 304 303 302 303 305 305 305 306 307 305 305 306 305 305 304 305 304 305 305 305 305 305 305 306 307 308 309 308 308 308 308 308 309 308 309 309 309 309 308 307 307 307 307 307 308 308 310 313 314 314 314 313 313 314 314 314 315 314 314 314 314 315 315 316 318 317 318 319 319 319 320 320 320 321 321 321 321 319 320 320 321 322 325 326
303 302 303 304 304 304 304 305 305 304 305 305 305 306 306 306 306 305 305 305 305 305 305 305 306 306 307 308 308 308 308 308 307 307 307 306 307 308 308 308 308 308 308 308 308 308 307 307 308 310 311 311 312 312 312 312 312 312 312 312 313 313 315 314 314 314 315 317 317 317 318 318 319 319 318 318 318 319 319 318 317 317 318 319 320 322 323
306 305 306 306 306 304 304 304 305 305 305 306 306 306 306 306 306 305 305 306 306 305 305 305 305 306 307 307 307 307 307 305 304 304 305 305 306 307 307 308 308 308 308 309 308 308 308 309 310 310 310 310 310 310 311 311 311 311 311 311 311 312 313 313 313 315 315 316 317 318 318 318 317 317 318 317 317 317 316 316 316 316 316 317 319 321 316
311 311 311 310 310 309 308 306 305 305 305 305 305 306 306 307 306 306 306 306 306 306 307 307 306 306 306 307 306 306 305 305 305 305 305 305 305 306 307 307 306 306 307 308 308 307 308 307 309 310 309 309 310 310 310 310 310 309 310 311 312 312 312 313 313 313 314 315 316 316 315 315 316 316 316 316 316 315 314 314 315 314 314 315 316 317 316
311 310 310 310 310 310 308 308 307 307 307 306 306 306 306 306 307 306 306 306 307 307 307 306 306 305 305 305 305 306 305 305 305 305 305 305 305 306 306 306 305 304 304 305 307 308 307 307 308 309 308 308 308 309 309 310 309 309 310 310 311 311 312 311 312 312 313 314 314 314 314 314 314 314 314 315 315 315 314 313 313 313 313 313 314 313 314
312 311 311 311 311 310 309 308 307 307 307 307 307 306 305 306 306 307 307 307 307 307 307 306 305 305 304 305 306 306 306 305 305 305 305 305 305 305 305 305 304 303 303 302 304 307 307 307 308 308 308 307 307 308 308 309 308 309 309 309 309 309 309 309 310 310 311 313 313 313 313 312 312 312 312 312 312 313 313 312 312 312 312 312 311 311 311
311 310 308 308 310 311 310 308 308 307 307 307 307 307 306 306 307 307 307 306 307 307 307 306 305 305 306 306 305 304 304 304 304 304 305 305 305 304 303 303 303 303 301 302 306 307 306 307 307 306 306 307 307 307 308 308 309 308 307 307 308 308 308 308 308 309 310 310 312 311 311 311 310 310 311 311 311 311 311 310 310 310 310 310 309 308 308
307 309 310 309 307 308 310 310 310 310 309 308 307 307 307 307 307 307 306 306 307 307 306 305 305 304 304 304 303 303 303 304 303 303 303 303 304 302 302 302 303 304 304 306 306 306 306 306 306 305 305 305 306 306 307 308 309 307 306 306 306 306 306 307 307 308 309 309 309 309 309 309 309 310 310 310 310 310 310 309 308 309 308 307 306 305 304
307 308 308 305 303 303 303 307 309 310 310 310 309 308 308 306 306 306 306 306 307 307 306 306 304 303 303 302 302 302 303 303 304 303 302 303 303 302 302 303 304 304 305 304 305 305 305 305 304 304 305 305 305 305 307 307 307 306 305 304 304 305 305 307 307 307 307 307 307 308 308 308 308 309 309 309 309 308 308 307 306 306 306 305 304 303 303
307 307 307 305 303 301 299 303 305 307 309 309 309 310 310 307 306 306 305 306 306 307 307 306 305 304 303 303 302 302 303 303 303 302 303 301 300 300 299 299 302 304 304 304 304 304 304 304 304 303 304 303 304 306 305 305 305 305 304 303 303 304 304 305 305 305 305 305 306 305 305 306 306 306 307 307 307 307 307 305 305 305 304 303 302 302 303
303 305 307 308 307 307 306 305 305 307 308 309 309 310 311 309 307 306 307 307 306 306 306 305 304 305 304 303 303 303 302 302 302 302 302 301 299 299 298 299 303 303 303 303 303 303 304 303 303 304 302 303 304 305 304 305 304 304 303 302 302 303 303 304 304 305 305 305 304 304 304 304 304 304 305 305 306 305 305 305 305 304 303 302 301 301 301
305 304 303 304 306 307 307 308 308 307 306 308 309 310 310 309 309 309 309 309 306 305 305 305 304 303 303 303 302 301 301 302 301 301 301 301 302 302 300 300 302 304 302 303 302 303 302 302 302 302 303 303 303 303 303 302 303 302 302 302 302 302 303 303 303 303 303 303 303 303 303 303 302 303 303 304 304 304 303 303 302 302 302 301 301 300 299
303 303 304 303 302 304 306 307 307 306 304 304 306 309 311 310 310 309 309 308 305 305 304 304 303 303 303 302 301 301 301 301 300 300 299 299 301 303 304 302 302 303 301 302 301 302 301 301 301 301 302 302 302 302 302 302 302 302 301 301 301 301 302 301 301 302 301 302 302 301 301 302 302 302 302 302 302 303 302 302 302 302 301 301 301 300 299
302 302 302 303 304 305 305 305 306 306 307 308 308 309 310 310 309 309 309 308 305 304 304 303 303 302 302 301 301 301 301 301 301 301 298 297 297 299 303 301 301 301 301 300 300 301 301 301 300 301 300 302 302 301 301 301 301 301 301 301 301 301 301 301 301 301 301 301 301 301 301 301 301 302 302 301 301 301 302 301 301 301 301 300 300 299 299
301 302 303 303 303 303 304 304 306 307 307 307 306 307 309 309 308 308 308 307 303 303 304 304 303 303 303 302 303 303 303 302 302 302 302 301 299 300 302 301 302 301 300 300 300 299 300 301 300 299 299 300 301 301 301 301 300 300 300 300 300 300 300 300 300 300 301 301 301 301 301 301 301 301 301 301 301 301 301 301 301 301 301 300 300 299 299
301 301 302 303 304 305 306 306 306 306 306 305 304 304 306 307 307 307 308 307 304 304 304 304 304 304 304 303 302 302 301 301 301 302 302 302 303 302 301 300 301 300 300 300 298 299 300 300 300 299 299 299 299 300 299 299 299 299 298 299 299 299 299 299 299 299 300 300 300 300 300 300 300 300 301 300 300 300 300 300 299 300 300 300 299 299 299
301 302 303 304 304 305 306 305 305 304 304 304 304 305 305 306 306 307 308 305 304 304 304 303 304 304 304 304 304 304 303 301 298 300 302 302 302 302 302 301 301 300 300 299 299 299 299 299 299 299 299 299 299 299 298 298 298 298 298 298 297 298 298 298 298 298 299 299 299 299 299 299 299 300 300 299 298 299 298 298 297 298 298 299 298 298 298
303 303 303 304 303 304 304 304 304 304 304 304 304 305 306 305 305 306 305 304 304 303 303 303 303 304 305 305 304 304 304 304 302 300 302 303 302 301 301 301 300 300 300 300 299 299 299 298 298 298 298 298 298 298 297 297 297 298 297 297 297 297 297 297 298 298 298 298 298 298 298 298 298 298 298 298 299 299 299 297 296 296 296 297 297 298 298
302 302 302 301 301 301 302 303 303 304 306 306 305 306 305 304 303 304 304 303 303 304 303 303 303 305 305 304 303 304 304 304 303 304 303 303 302 303 302 301 301 299 299 299 299 299 299 298 298 298 298 298 297 298 296 296 296 296 296 297 297 297 297 297 296 296 297 297 297 297 297 297 297 298 298 298 298 298 298 297 296 296 296 296 296 296 296
301 300 299 301 302 302 304 302 304 304 305 306 305 305 304 302 302 304 303 302 303 303 302 302 304 304 305 302 303 302 303 304 305 302 302 302 302 302 301 301 300 300 300 299 299 298 298 298 298 298 297 297 297 296 296 296 295 296 296 296 295 296 297 297 297 296 295 296 296 295 295 296 296 296 296 296 296 296 296 296 295 296 296 296 295 294 294
300 301 302 302 302 302 303 302 301 303 304 305 304 304 303 303 301 303 304 302 303 302 302 302 302 305 305 303 301 301 302 302 303 302 302 301 301 301 301 300 300 300 300 299 299 299 298 298 298 297 297 297 297 296 296 296 295 295 296 296 295 295 295 296 297 296 295 295 295 295 295 295 295 294 294 294 295 296 296 295 295 295 295 295 295 295 294
Wind_Speed
4 4 6 5 3 2 2 2 1 3 3 3 2 5 4 4 6 8 13 13 13 12 11 9 7 5 7 7 8 8 9 8 10 11 12 13 13 14 14 14 15 15 14 13 13 13 12 13 13 12 12 11 11 9 7 8 7 9 6 11 10 11 11 11 12 12 12 12 12 13 13 12 13 13 13 13 13 13 13 13 12 14 15 15 13 13 13
4 3 3 2 1 3 2 2 2 1 2 4 5 6 6 8 11 15 13 12 13 9 10 8 6 4 4 6 7 7 8 10 10 10 11 12 13 14 14 14 15 14 15 14 12 12 12 13 13 13 11 11 11 11 8 5 9 7 9 7 10 11 11 11 11 11 11 11 10 12 12 13 13 13 13 13 13 13 13 13 12 12 13 14 15 14 14
4 3 3 3 1 1 4 3 3 4 4 4 5 8 9 12 12 11 13 13 9 6 6 7 5 4 3 4 6 7 7 8 9 10 11 12 12 13 13 14 14 14 14 15 14 13 13 13 12 11 10 10 10 10 10 9 8 7 7 5 7 10 11 10 10 10 10 10 10 12 12 13 12 13 13 12 12 12 13 13 13 12 12 14 15 15 15
5 4 3 3 2 2 4 4 6 6 7 6 6 5 5 4 10 12 12 10 8 7 6 7 6 5 3 4 4 5 5 7 7 8 10 11 12 12 13 13 13 14 14 14 15 14 13 12 11 10 11 10 9 9 9 9 9 8 8 7 6 7 9 9 9 10 10 10 11 12 11 12 12 12 12 13 13 13 13 14 12 13 14 14 14 15 14
4 6 3 1 4 6 6 8 7 6 3 3 5 6 2 3 7 9 9 5 8 8 5 6 6 4 6 4 4 5 5 6 7 7 8 9 10 11 12 12 13 13 13 13 13 14 12 12 10 11 11 10 10 9 9 9 8 9 8 8 7 7 9 6 6 8 9 11 12 12 12 12 12 12 12 13 14 14 15 14 13 13 14 14 14 14 15
4 6 2 3 6 8 3 8 8 3 6 6 7 7 6 4 4 3 6 9 7 5 4 2 3 2 5 3 5 4 5 5 6 7 8 9 9 9 10 11 12 12 12 11 12 12 12 13 12 11 10 11 10 9 8 8 7 8 9 8 8 9 8 7 9 10 11 12 12 13 13 12 13 13 13 14 16 15 14 13 14 14 15 16 14 14 14
4 5 4 6 8 4 9 5 6 3 3 1 4 8 4 4 4 6 7 6 6 4 3 3 1 2 3 4 4 4 5 6 6 7 7 8 9 9 9 10 11 11 11 13 13 13 13 13 12 11 11 11 10 9 8 8 7 7 7 8 7 8 8 8 8 7 12 12 13 13 13 13 13 14 15 15 16 15 14 14 15 15 15 15 15 15 16
3 4 6 6 3 8 5 6 5 5 4 6 8 6 4 1 3 6 6 6 5 4 3 2 1 2 1 4 3 3 5 6 7 8 8 9 9 10 9 10 10 10 11 12 12 12 12 12 12 11 11 11 11 10 9 7 6 6 6 6 7 8 8 9 8 8 8 9 13 13 13 14 15 15 15 15 16 15 14 14 14 14 14 14 15 16 16
5 5 7 4 6 5 6 6 6 7 7 9 7 4 9 5 3 4 7 6 4 3 2 1 0 2 4 6 4 4 5 6 6 7 9 9 9 9 9 9 10 8 9 10 11 10 10 11 13 12 12 12 11 10 10 8 7 6 5 6 6 7 8 9 9 9 9 9 9 11 15 15 16 16 17 17 15 13 15 15 15 15 14 15 14 15 16
6 4 6 6 5 7 8 7 7 3 3 2 1 5 8 7 5 2 4 6 6 5 1 1 3 3 5 6 8 5 5 7 7 7 8 8 9 9 9 9 8 9 9 10 10 9 10 9 11 11 12 13 12 11 10 10 9 8 7 6 5 6 6 7 9 10 10 9 10 10 10 15 16 16 16 15 16 14 15 15 16 16 15 14 14 14 16
6 7 7 6 5 2 7 11 8 7 4 4 2 5 6 10 8 5 5 3 4 2 1 1 3 5 5 4 8 4 7 9 10 9 8 8 10 10 10 10 10 10 10 10 10 9 9 9 10 9 10 11 12 11 11 11 10 10 10 9 7 6 6 6 7 8 9 10 10 10 11 11 13 15 15 15 14 14 15 14 14 14 14 14 14 14 15
8 7 7 5 5 2 8 10 8 8 5 3 6 7 6 10 7 7 4 4 3 3 1 2 2 4 5 4 7 10 11 11 10 10 10 9 9 10 11 11 11 11 10 10 9 10 10 9 9 8 9 9 10 11 11 10 10 10 11 11 10 8 7 6 5 6 7 9 10 10 12 12 10 10 12 14 13 14 12 11 12 14 14 14 15 14 14
6 6 8 7 4 7 7 9 9 8 4 4 7 7 8 7 8 4 4 2 2 1 1 1 3 1 5 8 10 11 11 10 10 10 10 10 9 10 11 11 12 11 10 9 10 11 9 8 9 8 8 9 10 10 10 10 11 11 10 11 12 11 9 6 5 5 6 7 9 10 10 11 11 9 7 9 10 12 13 13 12 11 14 14 14 15 15
9 8 9 8 2 7 9 8 8 7 7 7 5 7 5 7 6 4 1 1 1 1 2 3 3 4 5 7 8 9 9 10 10 10 11 11 11 9 9 11 11 11 11 11 12 11 9 9 9 8 8 8 9 10 10 10 11 11 11 10 11 12 11 9 5 4 4 6 7 8 8 8 9 7 5 10 10 10 8 8 13 13 12 13 14 14 15
6 6 9 6 9 5 6 12 6 4 8 4 6 6 4 3 3 1 0 2 2 2 3 3 4 5 5 6 8 8 9 10 10 11 11 12 12 12 11 10 10 11 12 13 12 12 10 10 9 8 9 9 9 9 10 11 10 10 11 10 10 11 12 11 8 5 4 4 5 5 7 8 8 7 3 6 10 8 8 8 8 7 10 14 16 13 12
6 7 9 5 3 9 8 10 4 9 1 6 3 1 5 2 1 1 1 1 0 3 4 5 5 6 7 6 5 7 9 9 10 10 11 12 12 12 12 11 11 11 11 12 13 13 12 11 10 9 9 9 9 10 11 10 10 10 10 11 11 10 10 11 11 8 5 4 4 5 7 8 8 7 6 5 7 9 7 8 8 9 9 7 7 12 14
7 3 2 7 6 8 7 4 5 7 7 4 3 1 2 2 3 1 2 1 1 1 4 5 7 7 6 7 7 8 9 10 10 11 12 13 13 14 13 13 12 11 11 13 14 14 12 12 11 10 9 9 10 11 9 9 10 11 11 11 11 11 11 11 11 10 7 4 4 4 6 7 8 7 7 8 7 7 8 8 7 8 8 7 8 8 11
4 5 2 4 6 6 7 5 4 6 6 4 4 3 3 2 1 1 2 1 2 2 3 6 6 7 8 9 10 10 10 11 11 11 12 12 13 14 14 14 13 13 12 12 13 15 14 12 11 10 9 9 10 10 9 8 9 10 11 11 11 11 11 11 11 12 11 7 4 5 6 6 6 7 7 8 7 6 5 6 7 8 8 7 8 8 8
1 4 9 8 7 7 8 7 6 4 5 6 4 4 2 2 2 2 1 3 3 4 4 6 6 8 9 9 9 9 9 10 10 11 12 13 13 14 15 15 15 14 13 12 13 14 15 13 11 11 11 10 10 9 9 8 9 9 10 11 11 11 11 11 11 11 12 9 7 5 5 5 6 5 6 7 8 7 7 8 6 6 7 7 8 7 8
8 4 4 3 3 6 7 6 6 6 7 6 5 2 2 1 2 2 2 2 5 4 6 4 7 8 9 9 9 9 10 10 10 11 11 12 13 14 15 15 16 15 14 15 14 14 13 13 12 12 12 12 11 10 10 10 9 10 10 10 11 11 12 11 10 10 11 13 11 6 4 5 6 5 5 6 7 7 7 6 6 6 6 6 8 9 8
8 7 4 3 4 4 7 7 5 3 6 7 7 5 4 4 3 3 3 4 4 5 4 6 7 8 9 9 9 10 10 10 10 11 11 13 14 14 15 15 15 15 15 16 16 16 14 13 12 12 12 12 11 11 11 10 8 10 10 10 10 11 11 10 9 9 10 11 11 9 7 6 5 5 6 7 7 8 9 8 8 8 8 7 7 6 4
8 8 7 10 6 7 10 12 9 7 7 7 7 6 5 5 4 3 3 3 4 4 5 5 6 8 8 9 10 11 11 11 12 12 12 13 14 14 14 14 15 16 17 16 16 16 15 13 12 12 12 12 11 11 11 11 10 10 11 10 9 9 9 9 9 9 10 10 12 12 10 7 6 6 4 7 8 8 9 8 11 14 9 10 9 6 8
6 3 3 7 6 5 4 7 9 9 8 7 7 6 5 4 3 4 3 4 4 5 5 5 6 7 8 9 10 11 11 11 11 12 12 13 12 13 14 15 16 16 16 16 17 17 15 13 13 13 12 12 11 11 8 8 9 10 11 10 8 8 8 8 8 9 10 10 11 11 12 11 7 7 8 5 10 13 12 12 13 14 15 16 14 12 12
12 4 3 4 5 7 5 8 10 9 8 7 7 5 4 3 3 2 5 3 5 5 6 7 6 7 8 9 10 11 11 11 12 12 12 13 13 13 13 13 15 16 17 17 17 17 15 14 13 12 12 12 10 9 8 6 6 9 10 10 9 8 8 8 9 9 9 10 12 12 12 12 10 8 6 8 10 5 8 9 10 12 14 15 16 16 18
9 6 7 8 7 6 5 8 9 8 8 7 5 5 5 5 4 4 3 4 5 6 6 7 7 7 8 9 10 10 11 12 12 12 13 12 12 12 13 14 16 17 17 17 17 15 14 14 13 13 12 12 10 9 7 7 9 10 10 11 11 11 9 9 9 10 10 9 11 12 12 12 12 10 7 6 8 12 8 6 12 14 14 15 17 19 19
8 6 5 6 6 6 6 7 8 8 8 7 6 4 4 2 2 3 4 4 5 5 6 7 8 7 7 8 8 10 11 11 12 12 11 11 12 12 13 14 15 16 18 18 17 16 15 15 14 13 13 11 9 7 5 6 8 9 10 10 11 10 10 10 11 10 9 10 10 10 11 11 11 11 10 7 6 7 11 13 10 6 11 14 14 15 16
6 6 7 8 10 9 9 9 7 9 8 8 7 6 5 4 6 5 4 4 5 6 6 6 7 7 8 8 9 10 10 10 10 9 10 11 12 12 13 14 16 18 18 16 15 15 16 15 14 14 12 11 8 6 5 6 7 9 10 11 11 12 15 12 10 10 9 9 10 10 10 11 11 11 11 10 7 6 7 9 11 14 12 6 9 11 7
7 7 8 11 11 12 10 8 4 8 9 9 8 6 6 5 5 5 6 6 5 5 5 6 6 6 7 7 9 9 9 9 9 9 10 11 10 11 12 15 15 16 15 14 13 13 13 14 13 12 9 5 4 4 4 6 7 9 10 10 11 10 10 10 10 9 9 9 9 10 11 11 11 12 12 12 10 7 5 6 9 11 11 10 10 12 14
8 7 8 9 8 8 9 9 8 8 8 8 7 6 6 6 6 6 5 5 4 5 5 5 5 5 6 7 7 8 9 9 9 10 10 10 10 10 12 14 14 13 13 14 14 13 11 10 7 6 4 3 3 4 5 7 7 8 9 10 10 10 10 9 9 9 9 9 10 10 10 11 10 11 11 12 11 9 7 6 7 9 11 13 13 10 6
8 7 8 6 5 6 8 10 10 9 9 9 9 8 8 7 6 5 5 4 5 5 4 5 6 6 6 7 7 7 8 9 9 8 8 9 10 10 11 12 13 11 10 12 12 11 11 10 9 6 6 6 6 6 7 7 7 8 9 11 11 11 11 10 10 10 11 10 10 11 10 10 9 10 11 11 11 10 8 7 7 8 11 12 12 12 13
5 6 8 7 5 5 7 9 9 9 9 9 9 8 8 7 6 5 5 5 4 4 5 5 5 6 6 6 7 7 8 7 7 7 7 8 9 10 10 11 11 10 9 10 10 10 9 9 7 6 6 6 7 7 7 7 8 9 9 10 10 10 10 12 12 11 11 11 10 9 9 10 9 10 10 11 11 11 9 7 7 7 9 11 11 11 10
7 7 8 8 8 9 10 8 9 9 9 9 9 9 8 7 8 7 6 5 4 5 5 5 5 6 6 7 7 7 7 7 8 8 8 8 9 9 9 10 10 10 8 6 6 8 8 8 8 7 7 8 8 7 7 8 8 9 9 10 10 10 10 11 11 11 11 11 10 10 9 9 9 9 9 9 10 11 11 9 7 6 7 9 10 11 10
8 9 11 12 12 13 12 11 11 11 11 10 9 8 7 6 6 6 5 5 5 6 5 5 4 5 6 7 6 6 7 8 8 8 8 9 9 9 9 8 9 9 8 7 6 7 7 8 8 8 8 8 8 8 9 9 9 9 9 9 9 10 11 11 11 11 11 11 10 9 8 9 9 9 9 9 9 9 10 11 9 7 6 8 10 10 10
9 7 7 10 11 11 12 12 11 11 9 9 8 7 7 6 6 6 5 6 6 6 5 4 4 5 6 6 6 6 6 7 7 7 8 8 9 9 9 8 8 9 8 7 6 6 7 8 8 8 9 9 8 8 9 9 9 9 9 9 9 10 11 10 10 10 10 11 10 10 9 9 9 9 9 8 8 8 9 10 10 9 8 8 9 10 10
8 8 7 7 10 10 10 10 10 10 10 9 8 8 6 6 7 7 6 6 7 5 3 4 4 5 6 6 6 6 6 6 6 7 8 7 8 9 9 9 8 8 9 8 7 6 7 8 8 9 10 10 10 9 9 9 9 9 9 9 10 10 10 10 10 9 10 10 10 10 9 9 8 8 9 9 9 8 8 8 9 9 8 9 9 10 10
8 9 9 9 9 11 11 10 9 10 9 9 8 7 7 7 7 7 7 8 5 4 5 4 4 5 5 6 6 6 6 6 7 7 7 7 8 8 9 9 8 8 9 9 7 8 9 9 10 14 12 11 10 10 9 9 10 10 9 10 10 11 11 10 10 9 9 10 10 9 9 10 10 9 9 9 9 8 8 8 8 8 8 8 9 10 11
8 10 10 10 10 11 12 11 10 9 9 9 8 7 7 7 7 6 6 6 5 5 5 4 4 4 5 5 5 6 6 6 6 6 6 6 7 8 9 8 7 7 9 8 8 10 10 9 13 17 12 9 9 10 10 12 10 9 9 10 10 10 10 10 9 9 9 9 10 9 10 9 8 8 8 8 8 8 8 8 7 8 8 9 9 9 9
7 5 7 11 10 11 11 10 9 9 9 9 8 7 7 6 6 6 6 6 6 5 4 4 4 3 4 4 5 5 6 6 7 7 7 8 8 8 8 8 7 7 8 8 10 10 9 11 14 12 9 9 9 10 12 14 14 11 9 9 9 10 10 9 9 9 9 8 9 9 9 8 8 8 7 7 7 7 7 7 7 8 8 8 8 8 8
8 7 7 7 6 10 8 9 9 8 9 10 8 7 7 6 6 6 6 6 6 5 5 4 3 4 4 4 5 5 5 6 6 7 8 8 8 8 7 8 7 8 8 9 11 9 10 11 11 10 9 9 10 10 12 14 14 10 9 9 9 9 9 9 9 9 9 9 9 9 9 8 8 8 7 7 7 7 7 7 7 7 7 7 7 7 7
7 7 3 3 3 5 6 7 5 6 7 8 8 8 7 7 6 7 7 7 6 5 4 3 3 3 3 3 4 4 4 5 6 6 7 8 8 8 7 5 5 7 9 11 10 9 11 15 12 9 9 10 10 9 11 13 14 10 9 8 8 8 8 9 9 9 9 8 9 9 9 8 8 7 7 7 6 6 6 6 6 6 7 6 6 6 7
7 6 4 5 6 7 8 7 6 6 5 6 7 7 7 8 7 7 7 7 6 5 4 3 3 2 1 2 3 4 4 4 5 6 7 7 7 7 7 7 7 8 8 10 10 10 11 10 9 8 9 10 10 11 10 14 12 10 9 8 8 8 8 8 8 8 8 8 8 8 8 8 8 7 6 6 6 5 5 5 6 6 6 6 7 7 7
10 11 8 7 7 7 9 10 9 7 6 4 6 7 7 7 6 6 5 6 6 5 4 2 1 2 2 2 1 2 3 4 5 5 6 6 6 7 7 7 7 7 11 12 11 10 9 8 8 9 10 10 10 15 15 12 10 9 8 8 8 7 8 8 8 8 7 7 7 7 8 7 7 7 6 6 5 5 5 6 5 5 5 6 6 6 6
8 8 9 9 6 6 6 7 6 3 3 5 8 8 6 6 5 5 6 6 6 5 4 3 5 4 3 1 1 3 3 4 4 5 5 5 5 5 6 7 7 7 11 10 9 8 8 8 8 8 13 12 12 16 15 10 8 8 8 8 8 7 7 7 7 7 7 7 7 6 7 7 7 6 6 5 5 5 5 5 5 5 5 5 6 6 6
7 8 6 6 7 7 4 4 4 6 7 9 11 9 8 7 6 6 6 6 6 5 4 4 4 2 1 1 2 3 3 4 4 4 5 5 4 4 6 7 7 8 10 9 9 7 7 8 8 13 17 17 17 15 10 8 8 7 7 7 8 7 7 6 6 6 6 6 6 5 5 6 7 6 5 5 4 4 4 5 5 5 5 6 5 5 6
7 6 6 7 7 6 7 7 5 6 7 5 6 9 9 8 7 7 7 6 5 5 5 4 4 3 3 1 1 2 3 3 3 4 6 6 6 6 6 8 8 8 9 11 8 6 7 9 12 16 14 16 16 14 8 7 7 7 7 7 7 7 6 6 6 6 6 6 5 5 5 5 5 5 5 4 4 4 4 4 4 5 5 5 5 6 6
9 7 7 7 7 6 5 6 5 5 6 6 8 9 9 8 8 8 7 6 5 5 5 4 4 4 3 2 2 2 3 3 3 3 4 5 5 6 6 6 7 8 11 11 7 7 7 13 14 14 16 15 15 10 8 8 7 6 6 6 7 7 6 5 5 5 5 5 5 4 4 4 4 5 4 4 3 3 4 4 4 4 5 5 5 5 5
9 8 8 7 7 6 7 6 5 6 6 6 7 7 8 9 8 7 7 6 6 5 5 4 4 4 2 1 2 2 3 3 2 2 3 4 4 4 4 5 6 8 9 6 6 7 8 10 12 14 14 14 12 8 8 8 8 6 7 7 6 6 6 5 5 5 5 5 5 5 4 4 4 4 4 4 4 5 5 5 5 5 5 6 6 6 6
8 8 7 7 6 6 6 6 6 7 7 7 7 6 7 8 8 7 6 6 6 6 5 5 4 4 3 2 1 2 3 3 4 2 3 5 5 5 5 6 7 9 9 6 6 6 11 13 13 15 15 13 9 8 8 8 8 8 7 7 6 7 6 5 6 5 4 4 5 5 5 5 4 5 5 4 4 5 5 6 6 6 7 6 6 6 6
7 8 8 7 7 7 6 7 6 6 6 7 8 6 6 7 6 6 6 6 6 5 5 5 5 3 2 1 2 1 2 2 3 4 5 5 5 5 4 4 6 8 8 6 7 6 9 11 12 13 14 12 9 8 8 8 8 8 8 8 7 7 8 7 6 6 6 6 5 5 5 6 6 5 5 6 6 6 7 7 7 8 8 7 6 7 7
7 7 7 6 6 6 5 4 5 5 5 6 6 6 7 7 7 6 6 5 4 3 3 4 5 4 3 2 1 1 2 2 2 2 3 3 4 3 4 4 6 7 7 7 7 6 7 10 10 11 11 9 9 8 7 8 8 7 7 8 8 7 8 9 9 9 8 7 7 6 6 6 6 7 8 7 7 7 8 9 7 11 17 10 7 7 7
6 5 6 5 4 6 5 3 3 5 6 6 6 5 5 6 5 6 4 5 5 4 4 5 3 2 1 1 1 1 1 2 0 1 2 2 2 3 5 5 4 5 6 6 7 7 7 7 8 8 9 8 7 8 8 8 8 9 9 8 8 7 7 7 7 8 8 7 7 7 7 7 7 7 7 7 8 8 9 10 10 10 9 7 7 8 8
5 4 4 5 5 5 5 7 8 7 6 6 5 5 4 3 4 1 5 6 5 4 4 4 4 3 2 1 1 1 1 2 2 0 0 2 3 3 3 3 3 4 5 6 6 7 7 7 7 9 9 8 7 8 9 10 8 7 8 8 8 8 9 9 7 6 7 8 9 8 9 9 8 8 7 8 9 10 10 10 8 9 10 8 8 9 8
Wind_Direction
81 59 60 50 70 71 66 51 51 61 38 52 82 62 56 350 266 161 153 158 135 135 123 115 97 67 79 74 67 56 58 50 49 45 41 42 42 39 36 31 30 26 26 23 15 15 15 11 9 10 16 14 12 0 360 1 355 346 274 214 222 218 215 214 212 208 207 206 207 206 209 209 213 216 217 215 213 212 210 213 213 215 216 219 216 214 216
118 98 79 61 99 137 158 124 138 110 100 92 88 95 88 85 88 121 153 144 122 120 124 115 110 92 82 84 68 63 58 49 40 42 41 38 38 37 34 29 26 23 25 23 18 13 11 9 6 6 4 8 9 9 349 357 355 344 352 293 228 228 226 221 216 210 206 209 207 207 205 208 209 211 216 217 215 213 213 213 215 215 216 218 221 217 216
130 119 160 163 90 213 165 158 158 164 150 123 99 101 100 107 109 113 133 127 129 118 130 125 123 112 101 62 68 59 55 49 40 38 39 34 32 33 32 30 24 22 21 19 18 14 12 6 4 359 353 353 358 13 8 359 338 340 329 327 266 234 238 232 223 217 210 208 208 206 207 210 209 211 213 216 217 217 217 217 217 213 215 217 219 221 217
156 162 186 170 196 207 207 178 175 171 170 164 166 150 120 150 136 141 144 157 157 159 181 152 145 132 78 64 56 57 52 42 42 36 39 34 27 24 26 24 22 19 17 19 13 11 10 5 3 356 351 349 354 353 355 358 358 342 333 319 294 262 243 239 248 236 224 213 209 209 209 211 213 212 213 214 217 217 217 218 216 217 215 216 219 221 221
157 135 189 169 210 210 215 204 178 163 137 99 95 89 120 120 141 157 190 159 117 141 165 174 142 135 98 73 46 41 32 43 30 27 34 34 26 23 18 19 19 16 14 13 12 6 6 7 5 359 353 348 349 346 340 349 354 358 354 343 324 295 285 222 204 238 237 238 230 221 213 213 214 214 213 215 217 219 219 219 218 216 219 218 218 220 224
150 152 160 216 216 218 183 68 98 137 163 164 167 141 127 109 249 48 47 114 125 152 159 185 99 71 79 93 90 51 27 22 36 32 29 22 26 19 16 13 14 13 9 8 8 3 4 1 7 359 355 348 345 342 339 341 4 5 4 352 350 347 346 309 228 215 221 222 235 236 225 217 215 216 215 215 219 220 222 220 219 220 220 220 219 218 220
166 154 189 206 217 207 85 122 100 94 83 161 132 100 99 103 100 113 132 116 122 106 94 115 57 28 110 129 76 64 48 15 22 27 30 28 23 15 12 9 7 8 4 4 1 359 2 358 359 358 356 354 345 341 339 346 354 7 9 5 358 349 340 347 348 261 230 233 230 227 227 226 222 218 217 219 220 223 223 220 218 218 220 220 220 219 220
104 179 200 203 179 82 127 104 138 108 174 129 123 118 103 128 141 129 132 139 137 144 156 141 101 227 225 158 150 98 85 41 19 11 11 14 11 16 9 2 2 2 2 0 359 355 353 353 357 356 354 352 350 343 339 344 358 359 3 5 0 353 344 343 340 346 328 274 246 237 230 225 228 229 224 217 218 219 225 226 221 219 220 223 221 220 220
219 206 204 211 77 194 146 165 166 183 168 174 192 193 156 153 160 197 147 148 153 158 158 255 257 259 216 204 181 126 71 60 33 7 0 357 358 2 1 358 354 3 358 352 353 347 353 353 356 351 350 348 347 343 342 345 341 3 12 9 1 353 347 337 336 333 322 322 310 258 239 237 234 233 235 232 225 218 222 226 227 223 221 220 222 224 221
248 242 219 211 209 243 200 161 137 110 87 360 97 306 141 169 164 212 166 170 166 172 166 25 311 285 244 218 175 127 34 17 12 11 354 343 343 346 348 343 340 353 353 345 342 340 343 355 355 347 345 345 340 345 346 343 343 348 355 10 2 351 334 329 331 327 320 315 306 303 275 244 240 239 239 236 236 228 223 223 227 228 222 222 223 223 224
189 235 248 221 225 205 72 133 142 140 142 145 134 239 218 156 167 159 166 145 138 215 135 25 294 259 245 214 123 35 6 359 356 351 347 345 339 334 336 332 338 343 340 331 326 328 338 352 350 342 346 343 342 339 343 343 341 344 343 342 346 343 326 325 320 317 322 315 307 302 300 290 263 253 241 240 240 236 233 231 231 230 229 228 226 224 224
217 220 226 237 234 181 133 131 140 146 149 161 231 233 198 137 148 139 143 138 130 111 85 299 267 265 253 312 27 358 353 345 339 336 337 339 336 332 327 328 342 332 318 315 319 329 332 347 332 340 342 342 340 338 335 333 335 341 342 337 331 322 321 316 309 321 318 321 317 309 305 309 320 307 299 277 260 246 241 247 242 233 232 233 233 230 227
222 222 239 247 192 112 135 138 134 135 158 213 218 226 108 138 128 118 122 116 100 63 289 288 276 247 344 334 332 338 334 331 329 330 328 328 334 329 329 335 334 320 319 316 320 317 325 325 325 334 340 334 335 335 332 328 335 335 335 331 328 322 311 300 314 316 324 326 322 316 305 307 315 340 345 299 290 300 284 256 246 246 245 238 235 235 232
225 209 235 231 239 78 127 133 136 140 162 198 217 77 124 125 130 119 75 10 53 324 314 314 311 332 323 307 312 318 324 327 321 322 325 326 326 328 333 329 321 324 320 321 314 311 317 315 317 330 328 325 324 329 327 332 335 331 327 327 325 323 313 305 302 300 312 315 315 311 315 321 321 327 332 311 288 246 243 275 298 295 282 260 250 243 237
237 232 233 229 232 138 187 135 150 176 236 67 102 124 96 108 75 74 105 300 23 325 314 331 316 304 310 319 316 314 319 318 320 323 325 325 325 327 327 323 330 327 322 319 317 314 312 316 322 313 316 314 318 321 321 330 330 327 326 321 323 320 315 307 302 298 299 308 312 314 316 316 312 307 307 314 314 287 255 250 235 248 273 280 276 269 264
222 212 225 236 41 118 162 169 221 179 88 99 101 110 163 133 181 182 238 170 73 354 314 309 309 309 307 302 307 316 312 312 317 319 321 320 320 319 320 323 327 330 316 315 315 315 313 311 306 305 298 303 308 314 317 327 325 325 321 325 320 316 316 313 311 305 308 309 313 311 303 305 300 292 255 207 239 264 261 245 241 234 227 230 267 286 281
244 283 26 89 125 131 153 183 79 93 110 117 117 34 40 189 144 151 254 207 179 263 295 298 299 293 297 302 308 303 305 308 313 318 319 320 317 316 319 320 322 320 318 315 312 308 308 304 301 297 294 290 297 301 315 319 322 322 322 321 320 318 318 317 315 311 306 310 315 330 316 305 303 291 269 271 255 245 249 239 241 253 248 230 232 248 271
281 270 190 121 120 150 150 156 119 125 130 135 159 159 190 142 77 161 290 330 274 257 272 292 288 294 300 302 301 302 306 307 308 308 309 310 314 312 314 314 318 318 311 306 306 307 307 304 298 295 291 286 288 300 306 311 314 320 320 318 317 318 316 316 316 315 311 308 326 327 311 306 308 309 312 300 283 270 265 262 240 227 233 226 230 230 245
21 231 184 198 190 163 179 160 148 141 149 159 167 160 200 132 172 208 216 274 285 278 285 275 288 293 296 299 301 302 303 303 306 307 307 308 309 312 311 313 313 310 310 305 302 304 305 307 303 298 294 286 284 289 300 308 313 318 319 315 315 315 316 315 316 313 310 315 324 314 307 306 302 309 310 306 305 294 275 269 270 260 247 244 232 222 222
223 274 107 180 200 192 191 190 177 187 168 162 164 169 140 160 174 242 272 268 256 268 265 288 296 292 296 296 300 301 304 306 305 305 304 306 306 306 307 306 307 305 303 303 302 301 299 301 299 295 292 290 287 290 296 303 316 315 310 317 316 315 315 315 313 315 313 315 309 303 318 315 311 311 312 310 302 300 309 302 294 275 258 256 247 236 237
231 237 200 173 146 194 193 189 210 195 169 169 170 174 178 188 210 214 230 237 289 286 291 300 289 290 292 298 300 301 303 302 302 303 305 304 304 304 304 306 305 302 302 300 299 297 294 295 293 288 285 285 287 286 286 292 306 308 306 308 311 309 310 309 311 312 310 312 310 313 312 306 300 308 312 309 301 297 296 314 322 324 310 286 265 280 274
241 247 229 179 209 214 198 200 195 183 159 168 170 178 192 200 210 219 239 261 256 273 296 285 289 294 297 297 299 301 301 302 304 305 304 304 303 303 302 300 298 297 296 294 294 295 295 295 289 284 281 279 279 276 282 288 297 301 306 306 307 308 308 308 311 317 317 313 310 310 306 303 308 304 265 232 260 283 295 292 285 283 272 273 284 304 282
258 341 325 173 229 293 340 161 170 164 164 171 181 186 199 196 199 212 251 266 270 290 289 295 295 293 297 301 302 299 301 306 308 305 303 302 301 301 303 301 300 297 295 294 292 291 291 291 284 278 274 274 273 270 276 288 292 294 300 305 303 303 307 307 320 315 308 306 307 307 305 304 303 305 310 272 212 228 244 261 267 263 265 263 263 251 249
273 256 172 206 229 247 167 161 158 167 169 179 187 184 190 205 199 215 251 269 297 286 290 292 290 296 299 301 302 303 306 305 304 302 301 302 301 304 305 303 302 300 295 291 289 288 290 288 285 279 272 267 265 263 262 271 285 290 296 300 302 303 305 306 308 306 304 303 304 304 305 306 303 307 309 312 312 211 220 265 274 274 274 270 263 252 240
264 285 269 249 234 238 177 167 166 166 168 182 185 186 195 192 209 246 273 282 261 278 286 290 298 301 302 304 306 306 306 305 304 307 307 305 307 307 306 307 309 308 302 296 290 286 283 283 282 278 273 270 268 267 273 288 285 287 291 295 298 300 299 301 301 303 302 304 305 304 304 305 306 305 304 315 315 319 314 224 241 258 265 263 259 256 254
264 259 250 239 226 204 183 171 171 170 169 179 183 188 163 199 279 283 265 264 277 279 281 290 294 304 312 304 301 303 304 305 312 312 308 311 313 312 312 316 315 308 300 290 283 283 283 283 282 277 269 266 262 253 262 279 284 288 290 290 293 292 297 298 298 298 299 301 301 300 298 298 300 301 301 302 306 313 315 324 319 240 229 236 246 251 248
248 243 228 218 213 199 192 194 189 179 182 184 193 195 206 201 161 219 249 261 261 269 279 283 293 305 305 301 304 305 307 310 310 310 313 315 316 318 320 322 323 316 307 296 283 276 280 279 274 269 266 269 258 238 243 259 274 283 286 290 290 291 290 289 290 293 295 295 297 297 298 298 296 299 300 302 298 293 309 313 313 314 320 286 229 216 241
247 231 221 223 215 207 194 201 211 183 193 188 199 205 203 199 221 227 232 236 245 256 264 274 289 298 295 302 307 307 309 312 315 317 321 325 325 325 328 328 330 329 322 300 285 280 274 274 270 270 275 282 277 269 282 284 284 286 289 292 292 292 293 289 287 290 292 292 292 293 294 295 298 298 298 298 295 296 297 298 301 308 306 305 310 313 301
232 225 217 226 234 209 196 201 189 179 185 192 197 204 207 216 224 235 238 239 249 255 265 282 289 282 292 308 311 313 316 315 321 330 337 328 326 333 334 330 336 347 359 6 3 344 308 278 281 291 292 344 325 331 304 297 292 291 291 292 293 291 290 289 291 290 291 291 289 290 292 292 293 292 294 292 294 298 301 305 311 312 307 311 315 308 304
229 213 204 185 175 188 189 191 198 197 202 197 201 206 209 216 228 231 240 249 245 258 277 285 279 289 300 304 311 319 320 318 325 334 333 327 328 331 340 336 336 351 1 3 357 351 358 12 15 19 9 2 341 323 306 297 291 290 289 290 289 288 286 292 294 294 291 290 290 291 288 286 286 291 293 297 299 299 303 308 316 317 312 316 316 313 326
215 207 202 183 178 199 220 215 208 208 208 205 210 215 209 217 226 241 246 243 241 254 265 270 282 294 303 307 311 317 311 311 318 329 324 327 330 335 344 342 342 349 358 348 346 349 354 358 356 354 349 337 328 318 312 303 298 293 291 288 286 285 285 287 285 286 288 290 288 287 288 288 290 292 295 298 301 300 302 307 317 318 314 308 308 314 322
194 192 194 200 200 200 205 212 219 218 211 209 211 217 220 226 232 241 245 240 245 259 260 266 285 297 302 303 306 313 309 315 315 319 322 332 337 336 338 337 340 337 335 341 346 346 344 347 343 342 335 332 330 322 315 307 302 296 293 294 289 290 289 288 286 284 286 285 284 285 284 287 287 291 291 294 298 304 305 306 304 307 308 306 308 308 313
213 212 212 205 201 203 207 212 218 217 215 215 218 220 224 227 239 240 239 239 239 234 245 263 286 290 298 299 304 310 312 312 314 318 330 333 330 332 332 336 333 331 329 333 339 338 337 337 334 331 334 331 329 319 309 301 300 298 297 294 291 289 286 287 289 291 287 283 282 279 283 285 289 289 289 292 295 298 301 302 305 305 301 302 300 302 304
216 220 212 205 207 206 211 215 216 221 219 221 221 224 227 224 226 224 225 230 234 239 252 279 279 287 290 296 302 308 314 313 315 324 332 331 330 334 333 328 324 327 325 323 332 328 324 331 328 330 332 325 319 312 306 305 301 300 296 293 288 285 284 284 284 285 286 286 284 286 284 285 284 285 288 291 294 296 298 301 304 308 310 311 305 302 303
235 233 229 216 212 221 223 223 216 216 217 216 215 217 218 217 218 215 205 225 230 242 256 252 267 285 293 298 309 313 313 313 315 318 322 323 326 331 329 321 322 324 327 325 326 331 331 324 326 335 331 318 312 308 307 305 305 300 299 292 286 283 285 286 286 283 285 285 287 287 286 285 284 289 290 292 293 294 295 296 299 304 311 308 304 304 303
234 238 237 230 225 227 224 221 220 215 216 220 217 215 218 215 216 221 206 215 222 231 232 249 272 282 289 305 309 317 319 317 317 315 310 320 321 324 323 319 321 322 327 325 331 341 330 320 327 332 324 312 308 308 309 312 307 305 299 294 292 290 286 283 281 281 280 282 283 284 284 287 289 289 290 291 292 292 294 293 296 301 303 306 305 307 309
247 247 243 235 233 231 224 222 222 220 215 213 213 215 219 213 215 216 214 211 215 217 227 249 265 275 300 309 310 308 311 319 318 317 318 316 318 319 321 320 318 319 322 320 330 334 325 323 332 329 321 315 314 312 309 311 308 309 303 299 295 289 287 285 284 281 281 282 284 285 285 286 285 287 289 289 291 295 297 296 301 305 306 306 306 306 312
274 271 286 290 269 234 226 229 226 224 222 217 215 219 220 216 213 212 211 214 209 213 226 248 265 296 288 291 302 313 319 322 320 322 321 320 322 319 318 317 317 323 324 327 331 328 328 332 331 326 318 317 318 315 312 312 313 311 307 303 295 292 289 288 286 282 284 284 287 288 287 286 287 289 289 290 292 295 297 301 305 306 307 311 314 317 321
272 261 237 225 267 298 272 222 210 217 215 216 211 211 211 217 211 215 219 217 207 199 212 228 256 267 281 303 314 320 319 322 325 323 322 322 321 313 312 316 325 337 328 328 325 325 329 333 328 325 323 322 319 317 314 312 313 311 307 301 297 292 293 289 287 285 285 286 287 287 289 289 288 288 287 292 294 296 298 306 308 306 309 314 319 322 327
292 281 233 94 6 329 314 297 257 223 216 215 212 206 198 202 205 215 218 215 202 197 212 233 252 267 298 317 314 315 326 326 327 326 330 326 321 313 307 301 334 327 321 322 324 326 328 326 324 328 328 326 324 321 319 317 314 307 304 302 299 296 291 290 290 289 290 289 288 289 288 287 288 289 292 294 293 296 303 309 310 314 317 320 325 325 327
272 259 221 205 206 209 235 251 259 261 242 225 214 210 200 201 206 213 216 215 194 195 206 221 243 254 278 311 317 322 335 338 333 336 335 324 324 323 320 319 339 326 331 332 328 326 324 322 329 330 333 330 322 324 323 318 311 302 303 303 301 298 296 295 292 290 290 294 294 295 294 295 294 293 295 296 298 304 308 309 310 317 323 327 329 329 331
314 304 278 240 235 220 206 214 226 228 219 226 258 225 197 201 206 212 198 204 198 196 206 204 65 349 338 323 312 310 318 332 342 347 344 337 335 328 325 332 346 329 341 330 324 326 322 325 341 338 336 334 328 333 329 312 302 305 304 306 303 300 295 297 295 296 294 294 294 294 296 297 298 300 304 304 308 311 314 315 320 329 336 336 334 338 343
320 322 318 299 272 241 224 219 200 177 239 229 217 207 201 208 199 194 186 192 203 197 195 183 148 169 210 230 295 302 334 343 350 352 338 339 338 338 326 331 327 342 339 331 327 322 329 329 334 334 337 336 333 331 318 305 306 307 306 308 308 305 303 302 301 302 304 300 298 302 303 301 303 304 306 309 316 322 325 330 334 339 341 340 339 340 342
318 315 313 309 307 299 287 259 204 193 213 225 222 216 200 190 190 192 192 197 203 197 202 192 195 190 174 239 293 319 346 347 337 343 333 333 328 357 354 339 337 337 344 340 321 334 337 335 335 340 336 335 336 329 319 314 315 313 313 315 317 314 313 311 309 307 302 300 303 308 309 307 306 306 311 317 323 325 336 340 340 345 347 352 355 356 353
302 302 302 303 299 300 301 282 249 221 217 213 227 217 197 193 188 195 194 201 204 191 194 190 191 186 187 195 316 342 345 329 326 333 332 341 334 341 1 345 345 339 347 335 324 341 347 343 344 341 339 341 338 329 328 331 326 321 321 323 322 322 322 319 320 318 318 312 311 309 313 315 313 313 314 322 329 335 356 356 356 360 5 7 9 11 16
303 300 300 297 290 282 259 256 273 268 252 230 210 198 197 197 195 195 193 193 190 200 198 189 194 195 189 205 196 246 275 304 337 349 345 340 340 330 351 354 347 356 338 328 342 343 353 349 350 353 345 347 342 331 358 353 356 342 337 330 331 330 338 339 339 336 334 333 327 331 329 329 326 327 338 340 354 4 17 18 22 25 26 23 21 19 21
303 303 298 298 298 286 278 266 248 246 240 227 218 198 193 202 195 197 182 184 186 194 194 186 185 187 194 252 309 302 312 320 339 54 344 330 327 335 7 6 10 6 343 348 1 347 359 351 352 354 355 353 347 352 3 359 3 4 354 351 350 350 344 346 344 347 348 350 354 352 347 344 338 349 2 11 20 26 24 27 30 33 36 34 29 28 29
307 303 303 303 296 296 289 272 250 234 221 217 201 200 190 188 196 181 166 179 185 194 190 190 188 189 196 239 257 325 334 337 317 353 356 333 342 353 343 349 359 352 339 351 9 16 20 356 354 358 360 357 357 7 5 0 1 11 8 9 2 3 4 9 6 3 351 359 3 9 8 12 5 11 24 30 35 41 49 46 40 34 33 32 32 29 33
298 297 299 295 287 287 281 264 242 230 207 203 204 192 161 157 175 170 171 175 187 199 190 184 188 188 198 201 296 320 36 25 350 345 348 348 347 346 356 360 20 6 346 356 357 353 11 0 360 2 2 2 8 8 6 7 1 6 12 13 17 8 7 15 16 7 12 14 17 19 22 21 23 20 37 43 43 47 52 53 48 44 35 30 28 28 31
304 304 295 286 293 287 274 255 233 217 186 175 156 131 138 156 174 173 169 172 184 180 176 178 194 191 207 201 202 43 39 17 11 355 355 359 1 356 348 12 17 10 4 357 3 3 17 11 9 13 11 9 7 9 9 8 5 8 12 10 9 14 18 13 30 28 22 27 22 24 27 29 33 29 37 42 37 42 51 50 45 47 46 38 32 32 32
323 350 308 313 316 278 263 242 225 140 126 108 108 123 146 169 175 158 163 171 177 172 179 188 193 176 156 252 284 31 1 299 351 16 350 12 352 24 16 357 19 14 9 12 9 5 5 10 7 8 14 13 5 10 13 15 10 9 16 22 17 2 15 24 15 24 28 30 33 33 31 28 37 43 43 41 47 49 49 51 50 49 45 38 34 31 34
350 13 14 54 62 56 71 83 64 52 60 83 81 85 97 77 12 290 175 180 196 179 180 183 168 154 205 225 2 317 345 334 315 242 77 21 8 10 36 346 352 27 7 13 13 12 12 15 19 24 18 14 13 10 15 20 18 9 5 14 25 25 17 18 23 26 25 28 32 34 38 42 41 37 36 35 40 47 50 47 42 47 47 41 39 36 32